Waarnemingen

Advertentie
Mijn weer
Chambery/Aix-Les-Bains, Frankrijk (7491): temperatuur & dauwpunt: 14.07.2018 04:00:00 - 20.07.2018 04:00:00 (CEST)Chambery/Aix-Les-Bains, Frankrijk (7491): temperatuur 5cm: 14.07.2018 04:00:00 - 20.07.2018 04:00:00 (CEST)Chambery/Aix-Les-Bains, Frankrijk (7491): temperatuur -20cm & temperatuur -100cm: 14.07.2018 04:00:00 - 20.07.2018 04:00:00 (CEST)Chambery/Aix-Les-Bains, Frankrijk (7491): windsnelheid & windstoten: 14.07.2018 04:00:00 - 20.07.2018 04:00:00 (CEST)Chambery/Aix-Les-Bains, Frankrijk (7491): windrichting: 14.07.2018 04:00:00 - 20.07.2018 04:00:00 (CEST)Chambery/Aix-Les-Bains, Frankrijk (7491): luchtdruk: 14.07.2018 04:00:00 - 20.07.2018 04:00:00 (CEST)Chambery/Aix-Les-Bains, Frankrijk (7491): zicht: 14.07.2018 04:00:00 - 20.07.2018 04:00:00 (CEST)Chambery/Aix-Les-Bains, Frankrijk (7491): Zonneschijnduur: 14.07.2018 04:00:00 - 20.07.2018 04:00:00 (CEST)Chambery/Aix-Les-Bains, Frankrijk (7491): neerslag: 14.07.2018 04:00:00 - 20.07.2018 04:00:00 (CEST)
Datum & Tijd tt [°C] td [°C] tt 5cm [°C] tt -20cm [°C] tt -100cm [°C] ff [km/u] ff [kn] fx [km/u] fx [kn] dd ppp [hPa] vv [km] sd [min] rr [mm]
20.07.2018 04:00:00 16,2 14,0 15,9 22,5 19,3 5 3 9 5 Z 1014,3 19 0 0,0
20.07.2018 03:00:00 17,3 14,2 16,3 22,6 19,3 4 2 8 4 ZZO 1014,4 20 0 0,0
20.07.2018 02:00:00 17,3 13,8 17,0 22,7 19,3 5 3 7 4 ZZO 1014,6 20 0 0,0
20.07.2018 01:00:00 18,9 14,8 17,9 22,7 19,3 2 1 6 3 ZZW 1014,4 20 0 0,0
20.07.2018 00:00:00 19,2 14,7 18,3 22,7 19,3 4 2 10 5 ZO 1014,3 19 0 0,0
19.07.2018 23:00:00 20,2 14,3 19,2 22,7 19,3 4 2 8 5 ZZO 1013,8 20 0 0,0
19.07.2018 22:00:00 23,3 14,0 20,5 22,7 19,4 4 2 10 5 Z 1013,1 1,8 0 0,0
19.07.2018 21:00:00 25,5 13,7 23,1 22,6 19,3 2 1 15 8 Z 1012,5 48 0 0,0
19.07.2018 20:00:00 29,0 12,4 27,6 22,6 19,3 3 1 14 8 WNW 1012,1 19 42 0,0
19.07.2018 19:00:00 31,7 12,5 30,9 22,5 19,3 8 4 16 9 N 1011,6 20 60 0,0
19.07.2018 18:00:00 32,1 11,8 32,4 22,4 19,3 12 6 20 11 N 1011,6 20 60 0,0
19.07.2018 17:00:00 31,7 12,5 33,5 22,2 19,3 11 6 18 10 NNO 1012,1 19 60 0,0
19.07.2018 16:00:00 31,6 11,9 33,9 22,1 19,3 11 6 21 11 NNO 1012,6 19 60 0,0
19.07.2018 15:00:00 31,2 13,5 34,3 22,1 19,3 12 7 21 11 NNO 1013,0 19 60 0,0
19.07.2018 14:00:00 29,6 15,0 34,6 22,0 19,3 15 8 22 12 NNO 1013,7 20 60 0,0
19.07.2018 13:00:00 28,2 16,1 33,7 21,9 19,3 9 5 20 11 N 1014,3 19 60 0,0
19.07.2018 12:00:00 27,5 15,8 31,2 21,9 19,3 6 3 14 7 N 1014,7 18 60 0,0
19.07.2018 11:00:00 25,4 15,4 27,7 22,0 19,3 7 4 14 8 NNO 1015,2 19 60 0,0
19.07.2018 10:00:00 23,6 15,9 23,6 22,0 19,3 4 2 14 8 NO 1015,5 18 60 0,0
19.07.2018 09:00:00 21,5 15,3 19,8 22,1 19,3 5 3 11 6 NNO 1016,0 18 60 0,0
19.07.2018 08:00:00 19,3 16,0 15,6 22,2 19,3 2 1 7 4 ZO 1016,0 16 51 0,0
19.07.2018 07:00:00 15,1 13,8 15,3 22,3 19,3 3 1 8 4 Z 1016,4 14 0 0,0
19.07.2018 06:00:00 15,9 14,3 15,1 22,3 19,3 3 1 6 3 Z 1016,2 18 0 0,0
19.07.2018 05:00:00 15,7 14,2 15,7 22,4 19,3 3 1 8 4 ZO 1016,2 18 0 0,0
19.07.2018 04:00:00 16,8 14,8 16,3 22,5 19,3 3 1 8 4 ZZW 1016,2 13 0 0,0
19.07.2018 03:00:00 17,7 15,3 17,3 22,5 19,3 6 3 9 5 Z 1016,2 17 0 0,0
19.07.2018 02:00:00 19,2 16,1 18,1 22,6 19,3 4 2 11 6 WZW 1016,0 20 0 0,0
19.07.2018 01:00:00 19,6 15,5 19,2 22,6 19,3 3 2 13 7 WZW 1015,9 18 0 0,0
19.07.2018 00:00:00 21,1 16,5 19,8 22,6 19,3 5 3 23 12 ONO 1015,7 19 0 0,0
18.07.2018 23:00:00 22,6 17,3 22,2 22,5 19,3 11 6 19 10 ONO 1014,7 19 0 0,0
18.07.2018 22:00:00 24,6 15,8 23,5 22,5 19,3 7 4 15 8 ZZW 1013,7 33 0 0,0
18.07.2018 21:00:00 25,9 15,0 24,4 22,5 19,3 10 5 14 7 ZZW 1012,9 33 0 0,0
18.07.2018 20:00:00 28,4 15,0 27,2 22,4 19,3 6 4 14 8 O 1012,3 19 24 0,0
18.07.2018 19:00:00 30,1 13,8 30,8 22,3 19,3 8 4 24 13 WNW 1012,2 19 29 0,0
18.07.2018 18:00:00 30,7 13,9 31,9 22,2 19,3 8 4 20 11 WNW 1012,3 20 34 0,0
18.07.2018 17:00:00 31,1 14,3 33,0 22,1 19,3 11 6 22 12 N 1012,4 18 60 0,0
18.07.2018 16:00:00 30,7 15,2 33,7 21,9 19,3 11 6 20 11 NNO 1013,1 19 60 0,0
18.07.2018 15:00:00 29,7 15,0 34,5 21,8 19,3 11 6 19 10 N 1013,7 19 60 0,0
18.07.2018 14:00:00 28,6 16,2 32,5 21,8 19,3 11 6 20 11 N 1014,4 19 60 0,0
18.07.2018 13:00:00 27,0 15,1 30,6 21,7 19,3 10 5 18 10 NNW 1015,2 17 60 0,0
18.07.2018 12:00:00 25,8 16,1 30,0 21,8 19,3 10 5 18 10 N 1016,0 20 60 0,0
18.07.2018 11:00:00 24,6 14,7 27,5 21,8 19,3 8 4 16 8 NNO 1016,5 18 60 0,0
18.07.2018 10:00:00 23,6 14,9 23,9 21,8 19,3 4 2 10 5 NNO 1016,9 18 60 0,0
18.07.2018 09:00:00 22,2 15,3 20,5 21,9 19,3 3 2 9 5 O 1017,2 19 60 0,0
18.07.2018 08:00:00 19,5 15,2 16,0 22,0 19,3 2 1 7 4 ZO 1017,5 16 52 0,0
18.07.2018 07:00:00 15,0 13,4 15,2 22,1 19,3 2 1 5 3 Z 1017,7 10 0 0,0
18.07.2018 06:00:00 15,7 14,4 15,0 22,1 19,3 3 2 5 3 Z 1017,5 11 0 0,0
18.07.2018 05:00:00 15,7 14,2 16,0 22,2 19,2 4 2 7 4 Z 1017,3 10 0 0,0
18.07.2018 04:00:00 16,2 14,2 16,3 22,3 19,2 4 2 8 4 Z 1017,4 14 0 0,0
18.07.2018 03:00:00 16,8 13,9 17,2 22,3 19,3 6 4 14 7 Z 1017,6 19 0 0,0
18.07.2018 02:00:00 17,8 14,1 17,8 22,4 19,3 9 5 12 6 Z 1017,6 20 0 0,0
18.07.2018 01:00:00 18,8 14,7 18,8 22,4 19,2 5 3 14 8 Z 1017,4 20 0 0,0
18.07.2018 00:00:00 23,1 14,6 21,4 22,4 19,2 12 7 25 14 NNO 1016,6 48 0 0,0
17.07.2018 23:00:00 24,5 14,3 22,1 22,4 19,2 16 8 23 13 N 1016,3 52 0 0,0
17.07.2018 22:00:00 25,4 13,6 23,0 22,4 19,2 14 8 28 15 NNW 1015,9 57 0 0,0
17.07.2018 21:00:00 26,1 12,9 23,9 22,3 19,2 11 6 26 14 NNW 1015,3 54 0 0,0
17.07.2018 20:00:00 27,2 12,8 25,9 22,3 19,2 10 5 28 15 NNW 1014,7 20 41 0,0
17.07.2018 19:00:00 28,9 13,2 27,2 22,2 19,2 14 7 34 18 N 1014,5 19 28 0,0
17.07.2018 18:00:00 28,9 15,4 29,8 22,1 19,2 21 11 34 18 NNO 1014,6 20 54 0,0
17.07.2018 17:00:00 30,3 14,0 31,1 21,9 19,2 14 8 29 16 N 1014,5 18 57 0,0
17.07.2018 16:00:00 29,9 14,0 32,1 21,8 19,2 16 9 27 14 N 1014,8 18 54 0,0
17.07.2018 15:00:00 29,3 14,3 32,1 21,8 19,2 10 5 22 12 NO 1014,9 19 60 0,0
17.07.2018 14:00:00 28,5 16,4 31,7 21,7 19,2 16 8 24 13 NNO 1015,4 17 60 0,0
17.07.2018 13:00:00 27,2 15,6 30,4 21,6 19,2 11 6 19 11 NNO 1016,1 19 60 0,0
17.07.2018 12:00:00 25,9 15,9 29,3 21,6 19,2 10 5 19 10 N 1016,4 18 60 0,0
17.07.2018 11:00:00 24,8 15,7 27,1 21,6 19,2 10 5 18 10 N 1016,6 17 60 0,0
17.07.2018 10:00:00 24,0 14,7 24,1 21,7 19,2 9 5 14 8 NNO 1016,6 18 60 0,0
17.07.2018 09:00:00 23,7 14,9 20,3 21,7 19,2 3 2 7 4 NO 1016,6 18 52 0,0
17.07.2018 08:00:00 20,5 14,6 16,9 21,8 19,2 3 2 8 4 NNO 1016,7 19 49 0,0
17.07.2018 07:00:00 16,3 14,1 15,8 21,9 19,2 3 1 9 5 O 1016,7 17 0 0,0
17.07.2018 06:00:00 16,0 13,8 16,0 21,9 19,2 4 2 7 4 WZW 1016,2 7 0 0,0
17.07.2018 05:00:00 17,9 13,8 16,6 22,0 19,2 2 1 8 5 ZZW 1015,5 13 0 0,0
17.07.2018 04:00:00 16,9 13,6 17,0 22,1 19,2 3 2 9 5 Z 1015,3 7 0 0,0
17.07.2018 03:00:00 18,3 14,2 17,9 22,1 19,2 5 3 12 7 WNW 1015,0 16 0 0,0
17.07.2018 02:00:00 21,5 13,7 20,0 22,1 19,2 4 2 20 11 NNO 1014,3 20 0 0,0
17.07.2018 01:00:00 23,6 12,6 20,8 22,1 19,2 10 6 24 13 N 1013,5 43 0 0,0
17.07.2018 00:00:00 24,7 12,3 21,6 22,2 19,2 18 10 42 23 NNW 1013,3 20 0 0,0
16.07.2018 23:00:00 25,9 11,6 21,9 22,2 19,2 17 9 42 23 NNW 1012,3 46 0 0,0
16.07.2018 22:00:00 27,0 9,8 21,9 22,2 19,2 14 8 34 19 N 1011,0 59 0 0,0
16.07.2018 21:00:00 25,0 15,6 23,2 22,1 19,2 17 9 26 14 NNO 1009,9 20 37 0,0
16.07.2018 20:00:00 26,5 15,5 24,8 22,0 19,2 6 3 25 14 NW 1009,1 20 50 0,0
16.07.2018 19:00:00 28,3 14,2 25,6 21,9 19,2 18 10 30 16 N 1008,3 20 46 0,0
16.07.2018 18:00:00 30,3 13,1 26,1 21,8 19,2 12 6 21 11 NNW 1007,6 17 36 0,0
16.07.2018 17:00:00 28,8 13,1 26,9 21,7 19,2 11 6 23 12 N 1007,6 47 26 0,0
16.07.2018 16:00:00 30,2 13,9 29,0 21,6 19,2 15 8 23 12 NNO 1008,1 18 60 0,0
16.07.2018 15:00:00 29,3 16,5 29,2 21,6 19,2 13 7 26 14 N 1008,5 17 60 0,0
16.07.2018 14:00:00 28,1 15,0 25,9 21,5 19,2 8 4 19 10 N 1009,6 17 29 0,0
16.07.2018 13:00:00 26,1 15,8 25,0 21,5 19,2 10 6 19 10 N 1010,8 16 36 0,0
16.07.2018 12:00:00 24,9 14,7 23,9 21,5 19,2 6 3 16 9 NNW 1011,4 19 58 0,0
16.07.2018 11:00:00 23,0 14,3 21,9 21,5 19,2 9 5 15 8 N 1011,9 19 52 0,0
16.07.2018 10:00:00 21,5 15,1 20,7 21,5 19,2 5 3 12 7 N 1013,0 19 44 0,0
16.07.2018 09:00:00 20,1 14,5 19,2 21,6 19,2 6 3 14 7 N 1013,7 19 54 0,0
16.07.2018 08:00:00 18,7 14,6 16,1 21,7 19,2 7 4 11 6 N 1014,2 20 52 0,0
16.07.2018 07:00:00 14,7 13,4 15,9 21,8 19,2 2 1 9 5 W 1014,8 14 0 0,0
16.07.2018 06:00:00 14,9 14,1 15,5 21,8 19,2 6 3 12 6 ZO 1014,6 17 0 0,0
16.07.2018 05:00:00 15,0 13,7 16,0 21,9 19,2 5 3 9 5 ZZO 1015,5 17 0 0,0
16.07.2018 04:00:00 15,1 13,6 16,1 22,0 19,2 8 4 14 8 Z 1015,6 18 0 0,0
16.07.2018 03:00:00 16,4 14,8 16,5 22,0 19,2 9 5 16 8 ZW 1016,0 20 0 0,0
16.07.2018 02:00:00 17,7 15,0 17,0 22,1 19,2 11 6 25 14 ZZW 1016,0 20 0 0,0
16.07.2018 01:00:00 19,1 14,4 17,1 22,1 19,2 18 10 35 19 Z 1016,0 60 0 0,0
16.07.2018 00:00:00 19,7 14,5 17,2 22,2 19,2 16 9 41 22 ZW 1016,2 58 0 0,0
15.07.2018 23:00:00 19,5 15,8 18,3 22,2 19,1 16 9 24 13 Z 1016,4 19 0 0,2
15.07.2018 22:00:00 19,8 15,9 18,6 22,2 19,2 10 5 31 17 Z 1015,4 20 0 0,0
15.07.2018 21:00:00 21,4 15,5 19,3 22,2 19,2 18 10 37 20 N 1015,2 19 0 0,0
15.07.2018 20:00:00 23,1 14,4 19,9 22,1 19,1 8 4 37 20 O 1013,5 20 0 0,0
15.07.2018 19:00:00 22,0 15,4 20,1 22,0 19,2 26 14 68 37 N 1013,9 18 0 0,0
15.07.2018 18:00:00 26,5 19,6 25,6 21,8 19,1 9 5 19 10 N 1012,2 20 2 0,0
15.07.2018 17:00:00 31,9 15,4 30,5 21,7 19,2 6 3 16 9 NNW 1011,4 47 57 0,0
15.07.2018 16:00:00 31,2 15,2 32,0 21,6 19,1 5 3 17 9 W 1012,0 18 60 0,0
15.07.2018 15:00:00 29,5 15,6 29,9 21,5 19,1 6 3 15 8 ZW 1013,1 18 60 0,2
15.07.2018 14:00:00 27,5 15,5 26,8 21,4 19,1 6 3 17 9 Z 1014,4 18 60 0,0
15.07.2018 13:00:00 26,2 16,4 22,7 21,4 19,2 6 4 18 10 ZZW 1015,3 19 60 0,0
15.07.2018 12:00:00 24,2 15,9 21,7 21,4 19,1 10 6 20 11 ZZW 1016,1 19 60 0,0
15.07.2018 11:00:00 21,6 16,3 20,1 21,5 19,2 4 2 11 6 Z 1016,5 19 14 0,0
15.07.2018 10:00:00 19,2 15,7 18,2 21,5 19,1 3 1 9 5 ZW 1017,2 20 4 0,0
15.07.2018 09:00:00 17,7 16,6 17,8 21,6 19,1 11 6 16 9 Z 1017,8 16 0 0,2
15.07.2018 08:00:00 16,2 15,4 16,6 21,6 19,1 5 3 7 4 ZZW 1017,4 11 12 0,0
15.07.2018 07:00:00 15,0 14,5 15,1 21,7 19,1 3 2 7 4 Z 1017,4 11 33 0,0
15.07.2018 06:00:00 14,3 13,7 14,8 21,8 19,1 4 2 6 3 ZZW 1017,2 0,9 0 0,0
15.07.2018 05:00:00 14,4 13,8 15,2 21,9 19,1 3 2 8 5 ZZO 1017,3 8 0 0,0
15.07.2018 04:00:00 14,8 14,2 15,7 22,0 19,1 4 2 6 3 Z 1017,3 4,5 0 0,0
15.07.2018 03:00:00 15,5 14,7 16,1 22,0 19,1 4 2 7 4 Z 1017,5 11 0 0,0
15.07.2018 02:00:00 15,5 14,9 16,2 22,1 19,1 6 3 9 5 Z 1017,7 11 0 0,0
15.07.2018 01:00:00 15,8 14,8 16,6 22,1 19,1 4 2 7 4 ZW 1017,7 7 0 0,0
15.07.2018 00:00:00 16,4 15,4 16,9 22,2 19,1 3 2 12 6 O 1017,7 17 0 0,2
14.07.2018 23:00:00 17,1 16,0 17,7 22,2 19,1 6 3 13 7 Z 1017,8 16 0 0,0
14.07.2018 22:00:00 18,3 16,1 17,6 22,2 19,1 4 2 23 12 WZW 1017,7 7 0 0,0
14.07.2018 21:00:00 19,0 15,7 17,3 22,2 19,1 15 8 64 34 ZZW 1016,7 20 0 1,2
14.07.2018 20:00:00 25,4 17,6 25,2 22,1 19,1 10 5 20 11 NNW 1015,7 17 0 0,0
14.07.2018 19:00:00 27,8 16,7 27,6 22,0 19,1 15 8 21 12 Z 1014,1 20 3 0,0
14.07.2018 18:00:00 30,1 14,6 31,0 21,9 19,1 13 7 34 18 Z 1014,0 18 46 0,0
14.07.2018 17:00:00 29,6 16,4 29,8 21,8 19,1 18 10 30 16 Z 1014,4 18 32 0,0
14.07.2018 16:00:00 29,5 16,0 33,1 21,7 19,1 14 8 28 15 ZZW 1014,9 19 45 0,0
14.07.2018 15:00:00 29,4 16,2 28,6 21,7 19,1 19 10 29 16 Z 1015,3 17 56 0,0
14.07.2018 14:00:00 27,0 17,8 26,5 21,6 19,1 12 6 19 10 Z 1016,1 19 5 0,0
14.07.2018 13:00:00 28,0 13,9 29,9 21,6 19,1 6 3 11 6 N 1015,9 19 11 0,0
14.07.2018 12:00:00 28,0 13,5 30,5 21,6 19,1 6 4 13 7 N 1016,1 18 57 0,0
14.07.2018 11:00:00 26,3 13,8 27,9 21,6 19,1 4 2 11 6 NO 1017,2 19 55 0,0
14.07.2018 10:00:00 24,7 13,9 24,6 21,6 19,1 5 3 12 7 ZO 1017,6 17 60 0,0
14.07.2018 09:00:00 22,9 14,5 20,6 21,6 19,1 3 2 9 5 NO 1018,0 17 56 0,0
14.07.2018 08:00:00 20,8 15,3 16,8 21,7 19,1 0 0 6 4 N 1018,2 17 47 0,0
14.07.2018 07:00:00 16,2 14,2 16,2 21,8 19,1 5 3 8 4 Z 1018,7 17 0 0,0
14.07.2018 06:00:00 16,2 13,7 16,3 21,8 19,1 4 2 6 3 Z 1018,9 19 0 0,0
14.07.2018 05:00:00 16,6 13,9 16,2 21,9 19,1 0 0 8 4 N 1018,6 20 0 0,0
14.07.2018 04:00:00 16,8 13,7 16,3 21,9 19,1 2 1 8 4 ZZW 1018,3 19 0 0,0

tt = temperatuur
td = dauwpunt
tt 5cm = temperatuur 5cm
tt -20cm = temperatuur -20cm
tt -100cm = temperatuur -100cm
ff = windsnelheid
fx = windstoten
dd = windrichting
ppp = luchtdruk
vv = zicht
sd = Zonneschijnduur
rr = neerslag

Weerstations in de omgeving